Flag for United Kingdom Weather past 2 weeks in Chester, England, United Kingdom

Now
73 °F

Sunny.


Feels Like: 77 °F
Forecast: 60 / 78 °F
Wind: 3 mph from North

Location: Hawarden Airport

Current Time: Jul 25, 2014 at 10:59:21 AM

Latest Report: Jul 25, 2014 at 10:20 AM


Visibility: 10 mi

Pressure: 30.12 "Hg

Humidity: 57%

Dew point: 57 °F

Location of ChesterLocation

Historic Weather in Chester — Graph

°F

Chester temperature yesterday

Maximum temperature yesterday: 84 °F (at 4:20 PM)
Minimum temperature yesterday: 57 °F (at 6:20 AM)
Average temperature yesterday: 76 °F

Past Weeks' High & Low Weather Summary

 TemperatureHumidityPressure
High84 °F (Jul 24, 4:20 PM)100% (Jul 11, 7:20 AM)30.27 "Hg (Jul 11, 7:20 AM)
Low50 °F (Jul 14, 6:20 AM)33% (Jul 24, 5:20 PM)29.74 "Hg (Jul 19, 1:50 PM)
Average69 °F68%30.03 "Hg
* Reported Jul 10 9:20 AM — Jul 25 9:50 AM, Chester, Weather by CustomWeather, © 2014

Note: Actual official high and low records may vary slightly from our data, if they occured in-between our weather recording intervals... More about our weather records

Advertising

Chester weather history for previous 24 hours

 ConditionsComfort  
Time TempWeatherWind HumidityBarometerVisibility
9:50 AM
Jul 25
72 °FSunny.2 mph65%30.12 "Hg10 mi
9:20 AM70 °FSunny.3 mph64%30.12 "Hg10 mi
8:50 AM70 °FSunny.3 mph73%30.12 "Hg10 mi
8:20 AM68 °FSunny.3 mph78%30.12 "Hg10 mi
7:50 AM64 °FSunny.3 mph83%30.12 "Hg10 mi
7:20 AM61 °FSunny.No wind88%30.12 "Hg10 mi
6:50 AM55 °FSunny.No wind100%30.12 "Hg10 mi
6:20 AM54 °FSunny.No wind94%30.12 "Hg10 mi
8:50 PM
Jul 24
77 °FSunny.8 mph44%30.09 "Hg10 mi
8:20 PM77 °FSunny.8 mph47%30.09 "Hg10 mi
7:50 PM79 °FSunny.10 mph42%30.07 "Hg10 mi
7:20 PM81 °FSunny.12 mph39%30.07 "Hg10 mi
6:50 PM81 °FSunny.13 mph39%30.07 "Hg10 mi
6:20 PM82 °FSunny.12 mph37%30.07 "Hg10 mi
5:50 PM82 °FPassing clouds.14 mph35%30.07 "HgN/A
5:20 PM84 °FPassing clouds.14 mph33%30.07 "HgN/A
4:50 PM84 °FPassing clouds.10 mph35%30.07 "HgN/A
4:20 PM84 °FPassing clouds.12 mph35%30.07 "HgN/A
3:50 PM82 °FSunny.12 mph40%30.09 "Hg10 mi
3:20 PM81 °FSunny.15 mph39%30.09 "Hg10 mi
2:50 PM82 °FPassing clouds.17 mph37%30.09 "HgN/A
2:20 PM81 °FPassing clouds.14 mph45%30.09 "HgN/A
1:50 PM82 °FPassing clouds.13 mph40%30.09 "HgN/A
1:20 PM82 °FScattered clouds.15 mph42%30.09 "HgN/A
12:50 PM81 °FScattered clouds.13 mph45%30.12 "HgN/A
12:20 PM79 °FPassing clouds.10 mph48%30.12 "HgN/A
11:50 AM79 °FPassing clouds.12 mph51%30.12 "HgN/A
11:20 AM77 °FPassing clouds.8 mph54%30.12 "HgN/A
10:50 AM75 °FPassing clouds.8 mph54%30.12 "HgN/A
10:20 AM75 °FPassing clouds.6 mph57%30.12 "HgN/A
Weather by CustomWeather, © 2014

See weather overviewHow to use our weather pages